DELTA 1 DEB, 40771

Orbit data source: Space-Track

DELTA 1 DEB, 40771 is space debris in SSO originally from a launch on Thu, 29 Jul 1976 UTC launched from the Air Force Western Test Range (AFWTR). Debris objects in space refer to the collection of defunct objects orbiting the Earth. Examples of debris include non-operational satellites, rocket bodies, and fragments generated from explosions, collisions, or faulty payload assembly.

Loading next visibility...
Identifier
40771, 1976-077GQ
Orbit
SSO
Country
Flag of USUS
Related business
Manufacturer
Unknown
Mission
Spacecraft
Bus & Motor
Unknown
Mass
Unknown
Launch date (UTC)
1976-07-29 (50 years ago)
Launch vehicle
Unknown
Launch site
Air Force Western Test Range (AFWTR)
Object type
Payload
Rocket body
Debris
Shape & HBR
Unknown shape, 0.1 m
Radar Cross Section
Small (<0.1 m²)

Expand to show TLE details & history
Last TLE update: 16 hours ago

TLE from 16 hours ago
0 DELTA 1 DEB
1 40771U 76077GQ  26033.88094330  .00000020  00000-0  49180-3 0  9992
2 40771 102.1822  14.6240 0013982 102.8441 286.1286 12.40080240522099
Epoch: 2026-02-02T21:08Z
TLE epoch observation values (Epoch: 2026-02-02T21:08:33.501Z)
Latitude
28.15326°
Longitude
-82.187°
Altitude
1,506.361 km
Speed
7.115 km/s
True Right ascension
00h 32m 05s
True Declination
28° 01' 26"
Sunlit
Object was in daylight at epoch
Visualization orbit readout
Latitude
Unknown
Longitude
Unknown
Altitude
Unknown
Speed
Unknown
Apparent Right ascension
Unknown
Apparent Declination
Unknown
Sunlit
N/A
Visualization observer readout
Local Sidereal Time
14:57:18
Azimuth
Unknown
Elevation
Unknown
Doppler factor
Unknown
Orbital elements
Apogee altitude
1,514.869 km
Perigee altitude
1,492.828 km
Semi-major axis
7,881.986 km
Eccentricity
0.0014
Inclination
102.1822°
RAAN
14.624°
Arg. of periapsis
102.8441°
True anomaly
285.97461°
Mean anomaly
286.1286°
Eccentric anomaly
286.05161°
Mean motion
3.10163 °/min
Orbital period
116.07 mins
BSTAR
0.0004918
Loading maneuver chart data...
Computing Atmospheric mass density...
Loading historical data...
Loading historical data...
Loading historical data...
Loading historical data...
Loading historical data...
Loading historical data...
Loading historical data...

Documentation

Showing up to 5 results
|